TimePDT,TemperatureF,Dew PointF,Humidity,Sea Level PressureIn,VisibilityMPH,Wind Direction,Wind SpeedMPH,Gust SpeedMPH,PrecipitationIn,Events,Conditions,WindDirDegrees,DateUTC
12:56 AM,57.9,52.0,81,30.05,10.0,South,3.5,-,N/A,,Clear,170,2012-10-09 07:56:00
1:25 AM,57.2,51.8,82,30.04,10.0,Calm,Calm,-,N/A,,Mostly Cloudy,0,2012-10-09 08:25:00
1:56 AM,57.9,50.0,75,30.06,10.0,South,4.6,-,N/A,,Overcast,170,2012-10-09 08:56:00
2:13 AM,57.2,50.0,77,30.05,10.0,South,3.5,-,N/A,,Scattered Clouds,170,2012-10-09 09:13:00
2:56 AM,55.9,48.9,77,30.05,10.0,Calm,Calm,-,N/A,,Partly Cloudy,0,2012-10-09 09:56:00
3:56 AM,54.0,48.9,83,30.05,10.0,Calm,Calm,-,N/A,,Clear,0,2012-10-09 10:56:00
4:56 AM,53.1,48.0,83,30.03,10.0,ESE,3.5,-,N/A,,Clear,110,2012-10-09 11:56:00
5:56 AM,54.0,48.9,83,30.04,10.0,Calm,Calm,-,N/A,,Clear,0,2012-10-09 12:56:00
6:56 AM,54.0,48.0,80,30.04,10.0,Calm,Calm,-,N/A,,Clear,0,2012-10-09 13:56:00
7:56 AM,55.0,48.0,77,30.04,10.0,Calm,Calm,-,N/A,,Clear,0,2012-10-09 14:56:00
8:56 AM,59.0,50.0,72,30.04,10.0,SE,4.6,-,N/A,,Clear,140,2012-10-09 15:56:00
9:56 AM,62.1,52.0,70,30.04,10.0,SSE,5.8,-,N/A,,Clear,150,2012-10-09 16:56:00
10:56 AM,66.0,50.0,56,30.03,10.0,Calm,Calm,-,N/A,,Clear,0,2012-10-09 17:56:00
11:56 AM,70.0,51.1,51,30.02,10.0,North,6.9,-,N/A,,Clear,360,2012-10-09 18:56:00
12:56 PM,69.1,46.9,45,30.00,10.0,NNW,11.5,-,N/A,,Mostly Cloudy,340,2012-10-09 19:56:00
1:56 PM,68.0,54.0,61,29.99,10.0,NNW,11.5,-,N/A,,Mostly Cloudy,340,2012-10-09 20:56:00
2:56 PM,68.0,55.0,63,29.97,10.0,NNW,13.8,-,N/A,,Scattered Clouds,340,2012-10-09 21:56:00
3:56 PM,69.1,54.0,58,29.96,10.0,NNW,16.1,-,N/A,,Scattered Clouds,340,2012-10-09 22:56:00
4:56 PM,66.9,53.1,61,29.96,10.0,NNW,12.7,-,N/A,,Scattered Clouds,330,2012-10-09 23:56:00
5:56 PM,66.0,54.0,65,29.96,10.0,NW,6.9,-,N/A,,Clear,320,2012-10-10 00:56:00
6:56 PM,64.9,53.1,65,29.97,10.0,NW,5.8,-,N/A,,Overcast,310,2012-10-10 01:56:00
7:56 PM,64.0,54.0,70,29.98,10.0,NNW,5.8,-,N/A,,Overcast,340,2012-10-10 02:56:00
8:56 PM,63.0,54.0,72,29.99,10.0,NNW,5.8,-,N/A,,Mostly Cloudy,330,2012-10-10 03:56:00
9:56 PM,62.1,55.0,78,30.00,9.0,NE,3.5,-,0.00,Rain,Light Rain,50,2012-10-10 04:56:00
10:56 PM,60.1,55.9,86,29.99,10.0,Calm,Calm,-,0.12,,Mostly Cloudy,0,2012-10-10 05:56:00
11:56 PM,60.1,57.0,90,29.98,10.0,Calm,Calm,-,N/A,,Mostly Cloudy,0,2012-10-10 06:56:00